| time (UTC) | temp F | wind direction | speed knots | gust knots | rain 1hr in | rain 24hr in | rain mn in | humidity % | barometer mb |
| 20260505223842 | 59 | 152 | 1.7 | 2.6 | 0.03 | 2.78 | 0.02 | 94 | 1012.4 |
| 20260505222820 | 59 | 277 | 0.0 | 0.9 | 0.02 | 2.77 | 0.02 | 94 | 1012.2 |
| 20260505222318 | 58 | 109 | 0.0 | 0.9 | 0.02 | 2.77 | 0.01 | 95 | 1012.5 |
| 20260505221808 | 58 | 251 | 0.0 | 1.7 | 0.02 | 2.77 | 0.01 | 95 | 1012.4 |
| 20260505221307 | 58 | 340 | 0.0 | 1.7 | 0.01 | 2.76 | 0.00 | 95 | 1012.4 |
| 20260505220807 | 57 | 284 | 0.0 | 0.9 | 0.01 | 2.76 | 0.00 | 94 | 1012.4 |
| 20260505220256 | 57 | 151 | 0.0 | 0.0 | 0.01 | 2.76 | 0.00 | 94 | 1012.5 |
| 20260505215755 | 57 | 151 | 0.0 | 0.0 | 0.00 | 2.75 | 2.75 | 94 | 1012.6 |
| 20260505215256 | 57 | 151 | 0.0 | 0.9 | 0.00 | 2.75 | 2.75 | 94 | 1012.7 |
| 20260505214756 | 57 | 150 | 0.0 | 0.9 | 0.00 | 2.75 | 2.75 | 94 | 1012.7 |
| 20260505214254 | 57 | 138 | 0.0 | 0.0 | 0.00 | 2.75 | 2.75 | 94 | 1013.0 |
| 20260505213757 | 57 | 138 | 0.0 | 0.0 | 0.00 | 2.75 | 2.75 | 94 | 1013.0 |
| 20260505213255 | 57 | 138 | 0.0 | 0.0 | 0.00 | 2.75 | 2.75 | 93 | 1013.1 |
| 20260505212257 | 57 | 138 | 0.0 | 0.9 | 0.00 | 2.75 | 2.75 | 93 | 1013.0 |
| 20260505211753 | 57 | 116 | 0.0 | 0.0 | 0.00 | 2.75 | 2.75 | 93 | 1013.1 |
| 20260505211254 | 57 | 116 | 0.0 | 0.0 | 0.00 | 2.75 | 2.75 | 93 | 1013.1 |
| 20260505210756 | 57 | 116 | 0.0 | 0.0 | 0.00 | 2.75 | 2.75 | 93 | 1013.3 |
| 20260505210254 | 57 | 116 | 0.0 | 0.0 | 0.00 | 2.75 | 2.75 | 93 | 1013.3 |
| 20260505205755 | 57 | 116 | 0.0 | 0.0 | 0.00 | 2.75 | 2.75 | 93 | 1013.2 |
| 20260505205308 | 57 | 116 | 0.0 | 0.0 | 0.00 | 2.75 | 2.75 | 93 | 1013.3 |
| 20260505204754 | 57 | 116 | 0.0 | 0.0 | 0.00 | 2.75 | 2.75 | 93 | 1013.3 |
| 20260505204258 | 57 | 116 | 0.0 | 1.7 | 0.00 | 2.75 | 2.75 | 92 | 1013.3 |
| 20260505203759 | 57 | 116 | 0.0 | 1.7 | 0.00 | 2.75 | 2.75 | 92 | 1013.4 |
| 20260505203257 | 57 | 178 | 0.0 | 0.9 | 0.00 | 2.75 | 2.75 | 92 | 1013.4 |
| 20260505202755 | 57 | 166 | 0.0 | 0.9 | 0.01 | 2.75 | 2.75 | 92 | 1013.3 |
| 20260505202259 | 57 | 167 | 0.0 | 0.9 | 0.02 | 2.75 | 2.75 | 92 | 1013.3 |
| 20260505201755 | 57 | 165 | 0.0 | 0.9 | 0.03 | 2.75 | 2.75 | 92 | 1013.2 |
| 20260505201256 | 57 | 163 | 0.0 | 1.7 | 0.04 | 2.75 | 2.75 | 91 | 1013.0 |
| 20260505200759 | 57 | 187 | 0.9 | 1.7 | 0.05 | 2.75 | 2.75 | 92 | 1013.0 |
| 20260505200254 | 58 | 162 | 0.0 | 1.7 | 0.06 | 2.75 | 2.75 | 92 | 1013.2 |
| 20260505195754 | 58 | 169 | 0.0 | 1.7 | 0.08 | 2.75 | 2.75 | 92 | 1013.3 |
| 20260505195256 | 57 | 207 | 0.9 | 1.7 | 0.09 | 2.75 | 2.75 | 92 | 1013.2 |
| 20260505194255 | 57 | 204 | 0.0 | 2.6 | 0.10 | 2.75 | 2.75 | 92 | 1013.3 |
| 20260505193759 | 57 | 197 | 0.9 | 2.6 | 0.12 | 2.75 | 2.75 | 92 | 1013.1 |
| 20260505193255 | 57 | 144 | 0.0 | 1.7 | 0.13 | 2.75 | 2.75 | 92 | 1013.1 |
| 20260505192747 | 57 | 164 | 0.0 | 1.7 | 0.13 | 2.74 | 2.74 | 92 | 1013.0 |
| 20260505192243 | 57 | 168 | 0.0 | 1.7 | 0.13 | 2.73 | 2.74 | 92 | 1013.2 |
| 20260505191744 | 58 | 176 | 0.0 | 1.7 | 0.14 | 2.72 | 2.73 | 92 | 1013.1 |
| 20260505191245 | 58 | 162 | 0.0 | 2.6 | 0.14 | 2.71 | 2.71 | 92 | 1013.0 |
| 20260505190744 | 58 | 137 | 0.9 | 2.6 | 0.16 | 2.70 | 2.70 | 92 | 1012.9 |
| 20260505185748 | 58 | 128 | 0.0 | 3.5 | 0.16 | 2.67 | 2.67 | 94 | 1012.8 |
| 20260505185244 | 58 | 92 | 0.9 | 2.6 | 0.15 | 2.66 | 2.66 | 94 | 1012.8 |
| 20260505184743 | 59 | 152 | 0.0 | 0.9 | 0.14 | 2.65 | 2.65 | 95 | 1013.1 |
| 20260505183241 | 59 | 132 | 0.0 | 1.7 | 0.11 | 2.62 | 2.62 | 95 | 1012.8 |
| 20260505182747 | 58 | 135 | 0.0 | 1.7 | 0.10 | 2.61 | 2.61 | 95 | 1012.6 |
| 20260505182243 | 58 | 171 | 0.0 | 1.7 | 0.09 | 2.60 | 2.60 | 95 | 1012.6 |
| 20260505181744 | 58 | 185 | 0.0 | 1.7 | 0.07 | 2.58 | 2.58 | 95 | 1012.4 |
| 20260505181245 | 59 | 133 | 0.0 | 1.7 | 0.07 | 2.57 | 2.57 | 95 | 1012.4 |
| 20260505180743 | 59 | 144 | 0.0 | 0.9 | 0.04 | 2.54 | 2.55 | 95 | 1012.3 |
| 20260505180242 | 59 | 134 | 0.0 | 0.9 | 0.05 | 2.53 | 2.53 | 95 | 1012.6 |
| 20260505175744 | 59 | 153 | 0.0 | 0.0 | 0.07 | 2.51 | 2.52 | 95 | 1012.3 |
| 20260505175241 | 59 | 153 | 0.0 | 0.0 | 0.08 | 2.51 | 2.51 | 95 | 1012.3 |
| 20260505174745 | 59 | 153 | 0.0 | 0.0 | 0.11 | 2.51 | 2.51 | 95 | 1012.3 |
| 20260505174246 | 59 | 151 | 0.0 | 0.0 | 0.17 | 2.51 | 2.51 | 94 | 1012.2 |
| 20260505173745 | 59 | 151 | 0.0 | 0.0 | 0.18 | 2.51 | 2.51 | 95 | 1012.5 |
| 20260505173243 | 59 | 151 | 0.0 | 0.0 | 0.27 | 2.51 | 2.51 | 95 | 1012.2 |
| 20260505172744 | 59 | 149 | 0.0 | 0.9 | 0.36 | 2.51 | 2.51 | 94 | 1012.4 |
| 20260505172242 | 59 | 149 | 0.0 | 0.9 | 0.42 | 2.51 | 2.51 | 94 | 1012.1 |
| 20260505171742 | 60 | 153 | 0.0 | 0.9 | 0.51 | 2.51 | 2.51 | 94 | 1012.2 |
| 20260505171229 | 60 | 154 | 0.0 | 0.9 | 0.66 | 2.50 | 2.50 | 94 | 1012.2 |
| 20260505170730 | 60 | 155 | 0.0 | 0.9 | 0.88 | 2.50 | 2.50 | 94 | 1012.3 |
| 20260505170231 | 60 | 154 | 0.0 | 0.9 | 1.08 | 2.48 | 2.49 | 94 | 1012.3 |
| 20260505165718 | 60 | 117 | 0.0 | 1.7 | 1.18 | 2.44 | 2.44 | 94 | 1012.5 |
| 20260505165220 | 60 | 117 | 0.0 | 1.7 | 1.24 | 2.43 | 2.43 | 94 | 1012.4 |
| 20260505164715 | 60 | 125 | 0.0 | 3.5 | 1.33 | 2.40 | 2.40 | 94 | 1012.5 |
| 20260505164207 | 60 | 264 | 1.7 | 3.5 | 1.51 | 2.34 | 2.34 | 94 | 1012.3 |
| 20260505163706 | 60 | 128 | 1.7 | 2.6 | 1.61 | 2.32 | 2.32 | 94 | 1012.2 |
| 20260505163205 | 60 | 322 | 0.0 | 2.6 | 1.61 | 2.22 | 2.24 | 94 | 1012.5 |
| 20260505162656 | 60 | 320 | 1.7 | 2.6 | 1.72 | 2.14 | 2.14 | 94 | 1012.3 |
| 20260505162153 | 60 | 326 | 0.9 | 1.7 | 1.74 | 2.07 | 2.08 | 94 | 1012.4 |
| 20260505161657 | 60 | 316 | 0.0 | 3.5 | 1.65 | 1.98 | 1.99 | 94 | 1012.3 |
| 20260505161154 | 60 | 311 | 0.9 | 3.5 | 1.45 | 1.77 | 1.82 | 94 | 1012.6 |
| 20260505160655 | 60 | 290 | 0.0 | 3.5 | 1.26 | 1.58 | 1.61 | 93 | 1012.5 |
| 20260505160156 | 60 | 303 | 0.0 | 3.5 | 1.04 | 1.36 | 1.38 | 93 | 1012.3 |
| 20260505153153 | 61 | 325 | 3.5 | 5.2 | 0.30 | 0.61 | 0.61 | 90 | 1011.9 |
| 20260505152654 | 62 | 331 | 2.6 | 3.5 | 0.11 | 0.42 | 0.43 | 88 | 1011.8 |
| 20260505151647 | 63 | 322 | 0.0 | 0.0 | 0.03 | 0.33 | 0.33 | 89 | 1011.7 |
| 20260505151142 | 63 | 322 | 0.0 | 1.7 | 0.02 | 0.32 | 0.32 | 87 | 1011.4 |
| 20260505150641 | 63 | 285 | 0.0 | 2.6 | 0.02 | 0.32 | 0.32 | 87 | 1011.6 |
| 20260505150142 | 63 | 311 | 0.0 | 2.6 | 0.02 | 0.32 | 0.32 | 85 | 1011.7 |
| 20260505140642 | 65 | 6 | 0.0 | 3.5 | 0.00 | 0.30 | 0.30 | 77 | 1011.8 |
| 20260505130142 | 66 | 170 | 1.7 | 7.0 | 0.00 | 0.30 | 0.30 | 76 | 1012.3 |
| 20260505124642 | 66 | 235 | 0.9 | 3.5 | 0.00 | 0.30 | 0.30 | 74 | 1012.7 |
| 20260505123639 | 66 | 112 | 0.0 | 6.1 | 0.00 | 0.30 | 0.30 | 76 | 1012.9 |
| 20260505123142 | 65 | 136 | 0.9 | 3.5 | 0.00 | 0.30 | 0.30 | 75 | 1013.0 |
| 20260505122640 | 65 | 220 | 0.9 | 6.1 | 0.00 | 0.30 | 0.30 | 75 | 1013.0 |
| 20260505122140 | 65 | 55 | 2.6 | 6.1 | 0.00 | 0.30 | 0.30 | 75 | 1013.1 |
| 20260505121644 | 66 | 162 | 3.5 | 6.1 | 0.00 | 0.30 | 0.30 | 74 | 1013.1 |
| 20260505120631 | 65 | 220 | 2.6 | 9.6 | 0.00 | 0.30 | 0.30 | 76 | 1013.0 |
| 20260505120129 | 65 | 166 | 0.9 | 5.2 | 0.00 | 0.30 | 0.30 | 75 | 1013.0 |
| 20260505115619 | 65 | 161 | 0.9 | 9.6 | 0.00 | 0.30 | 0.30 | 79 | 1012.9 |
| 20260505115116 | 63 | 158 | 2.6 | 9.6 | 0.00 | 0.30 | 0.30 | 79 | 1013.0 |
| 20260505114107 | 63 | 203 | 1.7 | 7.8 | 0.00 | 0.30 | 0.30 | 79 | 1013.3 |
| 20260505113110 | 63 | 81 | 0.9 | 5.2 | 0.00 | 0.30 | 0.30 | 79 | 1013.3 |
| 20260505112554 | 63 | 156 | 0.9 | 5.2 | 0.00 | 0.30 | 0.30 | 79 | 1013.2 |
| 20260505112058 | 63 | 137 | 0.9 | 5.2 | 0.00 | 0.30 | 0.30 | 80 | 1013.3 |
| 20260505111553 | 63 | 119 | 2.6 | 3.5 | 0.00 | 0.30 | 0.30 | 78 | 1013.5 |
| 20260505111054 | 63 | 76 | 1.7 | 3.5 | 0.00 | 0.30 | 0.30 | 81 | 1013.2 |
| 20260505110556 | 62 | 222 | 0.9 | 5.2 | 0.00 | 0.30 | 0.30 | 83 | 1013.2 |
| 20260505102056 | 60 | 156 | 1.7 | 7.0 | 0.00 | 0.30 | 0.30 | 83 | 1013.5 |
| 20260505101554 | 60 | 224 | 0.9 | 3.5 | 0.00 | 0.30 | 0.30 | 83 | 1013.6 |
| 20260505101055 | 60 | 142 | 1.7 | 3.5 | 0.00 | 0.30 | 0.30 | 82 | 1013.5 |
| 20260505100558 | 60 | 261 | 1.7 | 3.5 | 0.00 | 0.30 | 0.30 | 82 | 1013.6 |
| 20260505100059 | 60 | 356 | 0.0 | 2.6 | 0.00 | 0.30 | 0.30 | 83 | 1013.3 |
| 20260505095552 | 60 | 87 | 0.0 | 9.6 | 0.00 | 0.30 | 0.30 | 83 | 1013.4 |
| 20260505095040 | 60 | 167 | 1.7 | 9.6 | 0.00 | 0.30 | 0.30 | 83 | 1013.3 |
| 20260505094044 | 60 | 158 | 0.0 | 3.5 | 0.00 | 0.30 | 0.30 | 83 | 1013.4 |
| 20260505093039 | 59 | 167 | 2.6 | 5.2 | 0.00 | 0.30 | 0.30 | 83 | 1013.6 |
| 20260505092542 | 59 | 137 | 1.7 | 5.2 | 0.00 | 0.30 | 0.30 | 83 | 1013.5 |
| 20260505092041 | 59 | 220 | 0.9 | 3.5 | 0.00 | 0.30 | 0.30 | 83 | 1013.6 |
| 20260505091541 | 59 | 313 | 0.0 | 2.6 | 0.00 | 0.30 | 0.30 | 85 | 1013.5 |
| 20260505091042 | 59 | 144 | 0.0 | 2.6 | 0.00 | 0.30 | 0.30 | 84 | 1013.3 |
| 20260505090539 | 59 | 222 | 0.0 | 2.6 | 0.00 | 0.30 | 0.30 | 84 | 1013.5 |
| 20260505090040 | 58 | 228 | 0.9 | 3.5 | 0.00 | 0.30 | 0.30 | 85 | 1013.6 |
| 20260505085542 | 58 | 306 | 0.0 | 3.5 | 0.00 | 0.30 | 0.30 | 86 | 1013.4 |
| 20260505085040 | 58 | 211 | 0.9 | 5.2 | 0.00 | 0.30 | 0.30 | 85 | 1013.7 |
| 20260505084540 | 58 | 248 | 0.9 | 5.2 | 0.00 | 0.30 | 0.30 | 84 | 1013.5 |
| 20260505084042 | 58 | 214 | 0.0 | 5.2 | 0.00 | 0.30 | 0.30 | 85 | 1013.5 |
| 20260505083528 | 58 | 221 | 1.7 | 2.6 | 0.00 | 0.30 | 0.30 | 85 | 1013.6 |
| 20260505082528 | 58 | 223 | 1.7 | 3.5 | 0.00 | 0.30 | 0.30 | 86 | 1013.4 |
| 20260505082017 | 58 | 237 | 0.0 | 2.6 | 0.00 | 0.30 | 0.30 | 86 | 1013.6 |
| 20260505081516 | 58 | 168 | 0.9 | 3.5 | 0.00 | 0.30 | 0.30 | 85 | 1013.3 |
| 20260505081017 | 57 | 202 | 0.0 | 3.5 | 0.00 | 0.30 | 0.30 | 86 | 1013.3 |
| 20260505080504 | 57 | 186 | 0.0 | 1.7 | 0.00 | 0.30 | 0.30 | 86 | 1013.3 |
| 20260505075507 | 57 | 207 | 0.0 | 1.7 | 0.00 | 0.30 | 0.30 | 86 | 1013.6 |
| 20260505074454 | 57 | 159 | 0.0 | 3.5 | 0.00 | 0.30 | 0.30 | 86 | 1013.6 |
| 20260505073952 | 57 | 243 | 0.9 | 6.1 | 0.00 | 0.30 | 0.30 | 86 | 1013.5 |
| 20260505072954 | 57 | 256 | 0.9 | 5.2 | 0.00 | 0.30 | 0.30 | 86 | 1013.4 |
| 20260505072452 | 57 | 206 | 0.0 | 6.1 | 0.00 | 0.30 | 0.30 | 86 | 1013.4 |
| 20260505071951 | 56 | 245 | 1.7 | 6.1 | 0.01 | 0.30 | 0.30 | 86 | 1013.5 |
| 20260505071454 | 56 | 242 | 0.9 | 5.2 | 0.01 | 0.30 | 0.30 | 86 | 1013.5 |
| 20260505070952 | 56 | 129 | 0.0 | 5.2 | 0.01 | 0.30 | 0.30 | 86 | 1013.6 |
| 20260505065954 | 56 | 137 | 0.9 | 3.5 | 0.01 | 0.30 | 0.30 | 87 | 1013.3 |
| 20260505065455 | 56 | 60 | 0.0 | 2.6 | 0.01 | 0.30 | 0.30 | 88 | 1013.5 |
| 20260505064953 | 56 | 266 | 1.7 | 2.6 | 0.01 | 0.30 | 0.30 | 87 | 1013.6 |
| 20260505064454 | 56 | 239 | 0.9 | 2.6 | 0.01 | 0.30 | 0.30 | 88 | 1013.7 |
| 20260505063952 | 56 | 150 | 0.9 | 2.6 | 0.01 | 0.30 | 0.30 | 88 | 1013.6 |
| 20260505063453 | 56 | 152 | 0.9 | 2.6 | 0.01 | 0.30 | 0.30 | 88 | 1013.4 |
| 20260505062955 | 56 | 90 | 1.7 | 5.2 | 0.02 | 0.30 | 0.30 | 87 | 1013.5 |
| 20260505062452 | 56 | 222 | 0.9 | 5.2 | 0.03 | 0.30 | 0.30 | 88 | 1013.4 |
| 20260505061953 | 55 | 279 | 1.7 | 6.1 | 0.04 | 0.29 | 0.29 | 88 | 1013.4 |
| 20260505061443 | 55 | 148 | 0.0 | 6.1 | 0.05 | 0.29 | 0.29 | 88 | 1013.6 |
| 20260505060939 | 55 | 227 | 0.0 | 2.6 | 0.06 | 0.29 | 0.29 | 88 | 1013.4 |
| 20260505060441 | 55 | 99 | 1.7 | 3.5 | 0.06 | 0.29 | 0.29 | 88 | 1013.7 |
| 20260505055940 | 55 | 166 | 0.0 | 5.2 | 0.06 | 0.29 | 0.29 | 89 | 1013.5 |
| 20260505055442 | 55 | 142 | 1.7 | 5.2 | 0.06 | 0.29 | 0.29 | 89 | 1013.3 |
| 20260505054943 | 55 | 127 | 0.0 | 3.5 | 0.07 | 0.29 | 0.29 | 89 | 1013.4 |
| 20260505053943 | 55 | 229 | 0.9 | 5.2 | 0.07 | 0.29 | 0.29 | 89 | 1013.2 |
| 20260505053442 | 55 | 226 | 0.0 | 5.2 | 0.08 | 0.29 | 0.29 | 90 | 1013.4 |
| 20260505052940 | 55 | 187 | 0.0 | 5.2 | 0.07 | 0.28 | 0.28 | 90 | 1013.3 |
| 20260505052441 | 55 | 170 | 0.9 | 3.5 | 0.06 | 0.27 | 0.27 | 92 | 1013.3 |
| 20260505051941 | 55 | 268 | 0.0 | 2.6 | 0.05 | 0.25 | 0.25 | 92 | 1013.2 |
| 20260505051442 | 54 | 336 | 1.7 | 3.5 | 0.06 | 0.24 | 0.24 | 93 | 1013.3 |
| 20260505050940 | 54 | 37 | 0.0 | 3.5 | 0.06 | 0.23 | 0.23 | 93 | 1013.2 |
| 20260505050442 | 54 | 36 | 0.9 | 1.7 | 0.07 | 0.23 | 0.23 | 93 | 1013.1 |
| 20260505041351 | 54 | 358 | 0.0 | 0.0 | 0.03 | 0.18 | 0.18 | 93 | 1013.4 |
| 20260505040354 | 54 | 359 | 0.0 | 0.0 | 0.01 | 0.16 | 0.17 | 93 | 1013.3 |
| 20260505035842 | 54 | 359 | 0.0 | 0.0 | 0.01 | 0.16 | 0.16 | 93 | 1013.3 |
| 20260505035339 | 54 | 359 | 0.0 | 0.0 | 0.01 | 0.16 | 0.16 | 92 | 1013.3 |
| 20260505034843 | 54 | 357 | 0.0 | 0.0 | 0.01 | 0.16 | 0.16 | 92 | 1013.4 |
| 20260505033339 | 54 | 357 | 0.0 | 0.0 | 0.03 | 0.15 | 0.15 | 92 | 1013.4 |
| 20260505032843 | 54 | 356 | 0.0 | 0.0 | 0.04 | 0.15 | 0.15 | 92 | 1013.6 |
| 20260505032327 | 54 | 356 | 0.0 | 0.0 | 0.05 | 0.15 | 0.15 | 92 | 1013.7 |
| 20260505031831 | 54 | 356 | 0.0 | 0.0 | 0.06 | 0.15 | 0.15 | 92 | 1013.8 |
| 20260505031303 | 54 | 356 | 0.0 | 0.0 | 0.06 | 0.15 | 0.15 | 92 | 1013.9 |
| 20260505030804 | 54 | 356 | 0.0 | 0.9 | 0.07 | 0.15 | 0.15 | 91 | 1013.8 |
| 20260505030304 | 54 | 356 | 0.0 | 0.9 | 0.08 | 0.15 | 0.15 | 91 | 1013.9 |
| 20260505025252 | 54 | 52 | 0.0 | 0.0 | 0.09 | 0.15 | 0.15 | 91 | 1014.0 |
| 20260505024752 | 54 | 49 | 0.0 | 0.9 | 0.09 | 0.15 | 0.15 | 91 | 1014.2 |
| 20260505024252 | 55 | 48 | 0.0 | 1.7 | 0.09 | 0.14 | 0.14 | 90 | 1014.3 |
| 20260505023253 | 55 | 99 | 0.0 | 0.0 | 0.08 | 0.12 | 0.12 | 91 | 1014.1 |
| 20260505022253 | 55 | 102 | 0.0 | 0.0 | 0.07 | 0.10 | 0.10 | 90 | 1014.2 |
| 20260505021753 | 55 | 102 | 0.0 | 0.0 | 0.07 | 0.09 | 0.09 | 89 | 1014.3 |
| 20260505021253 | 55 | 101 | 0.0 | 0.0 | 0.08 | 0.09 | 0.09 | 89 | 1014.5 |
| 20260505020244 | 55 | 113 | 0.0 | 2.6 | 0.06 | 0.07 | 0.07 | 87 | 1014.7 |
| 20260505015742 | 55 | 308 | 2.6 | 2.6 | 0.06 | 0.06 | 0.06 | 87 | 1014.6 |
| 20260505015242 | 55 | 306 | 0.0 | 1.7 | 0.06 | 0.06 | 0.06 | 87 | 1014.6 |
| 20260505014229 | 55 | 251 | 0.0 | 0.9 | 0.05 | 0.05 | 0.05 | 86 | 1014.7 |
| 20260505013728 | 55 | 255 | 0.0 | 0.9 | 0.05 | 0.05 | 0.05 | 85 | 1014.8 |
| 20260505013228 | 55 | 154 | 0.0 | 1.7 | 0.04 | 0.04 | 0.04 | 84 | 1014.8 |
| 20260505012728 | 55 | 150 | 0.0 | 1.7 | 0.03 | 0.03 | 0.03 | 84 | 1014.9 |
| 20260505012221 | 56 | 284 | 0.0 | 0.9 | 0.03 | 0.03 | 0.03 | 84 | 1015.1 |
| 20260505011704 | 56 | 156 | 0.0 | 0.9 | 0.02 | 0.02 | 0.02 | 84 | 1014.9 |
| 20260505011205 | 56 | 157 | 0.0 | 0.0 | 0.01 | 0.01 | 0.01 | 83 | 1015.0 |
| 20260505010700 | 57 | 157 | 0.0 | 1.7 | 0.01 | 0.01 | 0.01 | 80 | 1015.0 |
| 20260505010153 | 57 | 157 | 0.0 | 1.7 | 0.01 | 0.01 | 0.01 | 76 | 1015.0 |
| 20260505005651 | 58 | 159 | 0.0 | 0.9 | 0.00 | 0.00 | 0.00 | 75 | 1015.1 |
| 20260505005152 | 58 | 161 | 0.0 | 0.0 | 0.00 | 0.00 | 0.00 | 74 | 1015.1 |
| 20260505004651 | 57 | 159 | 0.0 | 0.9 | 0.00 | 0.00 | 0.00 | 73 | 1015.3 |
| 20260505003652 | 57 | 288 | 0.0 | 0.0 | 0.00 | 0.00 | 0.00 | 74 | 1015.2 |
| 20260505002640 | 56 | 288 | 0.0 | 0.0 | 0.00 | 0.00 | 0.00 | 74 | 1015.5 |
| 20260505002141 | 56 | 289 | 0.0 | 0.0 | 0.00 | 0.00 | 0.00 | 73 | 1015.6 |
| 20260505001641 | 56 | 289 | 0.0 | 0.0 | 0.00 | 0.00 | 0.00 | 74 | 1016.0 |
| 20260505000640 | 56 | 289 | 0.0 | 0.0 | 0.00 | 0.00 | 0.00 | 75 | 1015.7 |
| 20260505000140 | 56 | 289 | 0.0 | 0.0 | 0.00 | 0.00 | 0.00 | 74 | 1015.7 |
| 20260504235640 | 56 | 289 | 0.0 | 0.0 | 0.00 | 0.00 | 0.00 | 76 | 1015.7 |
| 20260504234629 | 57 | 289 | 0.0 | 0.0 | 0.00 | 0.00 | 0.00 | 74 | 1015.8 |
| 20260504234128 | 57 | 289 | 0.0 | 0.0 | 0.00 | 0.00 | 0.00 | 74 | 1015.8 |
| 20260504233615 | 57 | 289 | 0.0 | 0.0 | 0.00 | 0.00 | 0.00 | 73 | 1016.0 |
| 20260504233119 | 56 | 289 | 0.0 | 0.0 | 0.00 | 0.00 | 0.00 | 72 | 1016.0 |
| 20260504232555 | 56 | 289 | 0.0 | 0.0 | 0.00 | 0.00 | 0.00 | 72 | 1016.1 |
| 20260504232051 | 56 | 289 | 0.0 | 0.0 | 0.00 | 0.00 | 0.00 | 73 | 1016.1 |
| 20260504231553 | 56 | 289 | 0.0 | 0.0 | 0.00 | 0.00 | 0.00 | 73 | 1016.2 |
| 20260504231042 | 56 | 289 | 0.0 | 0.0 | 0.00 | 0.00 | 0.00 | 73 | 1016.3 |
| 20260504230540 | 57 | 289 | 0.0 | 0.0 | 0.00 | 0.00 | 0.00 | 72 | 1016.6 |
| 20260504230040 | 57 | 289 | 0.0 | 0.0 | 0.00 | 0.00 | 0.00 | 71 | 1016.4 |
| 20260504225540 | 56 | 289 | 0.0 | 0.0 | 0.00 | 0.00 | 0.00 | 72 | 1016.6 |
| 20260504224539 | 56 | 289 | 0.0 | 0.0 | 0.00 | 0.00 | 0.00 | 71 | 1016.6 |